{"data":{"norad_id":54225,"intl_designator":"2022-146A","name":"EUTELSAT HOTBIRD 13G","alt_names":[],"object_type":"PAYLOAD","status":"ACTIVE","operator":null,"country":"EUTE","launch_date":"2022-11-03","launch_site_code":"AFETR","launch_vehicle":null,"mission":null,"orbit_class":"UNKNOWN","rcs_meters":null,"size_class":null,"mass_kg":null,"dimensions":null,"purposes":["comms"],"wikipedia_slug":null,"has_3d_model":false,"image_url":null,"decayed_at":null,"tle_current":{"epoch":"2026-09-19T17:01:58.462752Z","epoch_age_seconds":86658,"freshness":"FRESH","line1":"1 54225U 22146A   26262.70970443  .00000083  00000+0  00000+0 0  9994","line2":"2 54225   0.0482 234.7723 0002083 299.2511  93.1007  1.00274177  8416","mean_motion":1.00274177,"eccentricity":0.0002083,"inclination_deg":0.0482,"raan_deg":234.7723,"arg_perigee_deg":299.2511,"mean_anomaly_deg":93.1007,"bstar":0,"rev_number":841,"period_min":1436.0626465177,"perigee_km":35777.141636097,"apogee_km":35794.70718408,"semimajor_km":42164.061410089,"source":"CELESTRAK","updated_at":"2026-09-20T09:00:35.307797Z"}}}